Main page
METAR-TAF:

METAR-TAF

Airports :

Oil platform

Troll A, Norway

latitude: 60-38-42N, longitude: 3-43-29E, elevation: 20 m

Current weather observation

The report was made 36 minutes ago, at 20:50 UTC
Wind 37 kt from the South
Temperature 10°C
Humidity 87%
Pressure 1021 hPa
Visibility 10 km or more

METAR: ENQA 202050Z AUTO 17037KT 9999NDV BKN150/// 10/08 Q1021 W08/S4

Time: 23:26 (21:26 UTC)


TAF: missing

Weather observations and forecasts of more than 4000 airports (METAR and TAF reports).

The available stations are represented by yellow and red dots on the map.

Hover mouse over dot to see the name of the station.

Then click to see weather observations and forecasts.

To change the map : click on the green buttons with a black cross to zoom in, on the green button with a dash to zoom out, or on the green arrows for adjacent maps.


METAR-TAF: